Time,TemperatureF,DewpointF,PressureIn,WindDirection,WindDirectionDegrees,WindSpeedMPH,WindSpeedGustMPH,Humidity,HourlyPrecipIn,Conditions,Clouds,dailyrainin,SoftwareType,DateUTC
2013-08-14 00:00:00,66.6,66.6,29.18,ENE,78,0.0,0.0,100,0.00,,,0.00,VWS V13.01,2013-08-14 05:00:00,
2013-08-14 00:01:00,66.6,66.6,29.18,ENE,78,0.0,0.0,100,0.00,,,0.00,VWS V13.01,2013-08-14 05:01:00,
2013-08-14 00:02:00,66.6,66.6,29.18,ENE,78,0.0,0.0,100,0.00,,,0.00,VWS V13.01,2013-08-14 05:02:00,
2013-08-14 00:03:00,66.6,66.6,29.18,ENE,78,0.0,0.0,100,0.00,,,0.00,VWS V13.01,2013-08-14 05:03:00,
2013-08-14 00:04:00,66.6,66.6,29.18,ENE,78,0.0,0.0,100,0.00,,,0.00,VWS V13.01,2013-08-14 05:04:00,
2013-08-14 00:05:00,66.6,66.6,29.18,ENE,78,0.0,0.0,100,0.00,,,0.00,VWS V13.01,2013-08-14 05:05:00,
2013-08-14 00:06:00,66.6,66.6,29.18,ENE,78,0.0,0.0,100,0.00,,,0.00,VWS V13.01,2013-08-14 05:06:00,
2013-08-14 00:07:00,66.6,66.6,29.18,ENE,78,0.0,0.0,100,0.00,,,0.00,VWS V13.01,2013-08-14 05:07:00,
2013-08-14 00:08:00,66.6,66.6,29.18,ENE,78,0.0,0.0,100,0.00,,,0.00,VWS V13.01,2013-08-14 05:08:00,
2013-08-14 00:09:00,66.6,66.6,29.18,ENE,78,0.0,0.0,100,0.00,,,0.00,VWS V13.01,2013-08-14 05:09:00,
2013-08-14 00:10:00,66.6,66.6,29.18,ENE,78,0.0,0.0,100,0.00,,,0.00,VWS V13.01,2013-08-14 05:10:00,
2013-08-14 00:11:00,66.4,66.4,29.18,ENE,78,0.0,0.0,100,0.00,,,0.00,VWS V13.01,2013-08-14 05:11:00,
2013-08-14 00:12:00,66.4,66.4,29.18,ENE,78,0.0,0.0,100,0.00,,,0.00,VWS V13.01,2013-08-14 05:12:00,
2013-08-14 00:13:00,66.4,66.4,29.18,ENE,78,0.0,0.0,100,0.00,,,0.00,VWS V13.01,2013-08-14 05:13:00,
2013-08-14 00:14:00,66.2,66.2,29.18,ENE,78,0.0,0.0,100,0.00,,,0.00,VWS V13.01,2013-08-14 05:14:00,
2013-08-14 00:15:00,66.2,66.2,29.18,ENE,77,0.0,0.0,100,0.00,,,0.00,VWS V13.01,2013-08-14 05:15:00,
2013-08-14 00:16:00,66.2,66.2,29.18,ENE,77,0.0,0.0,100,0.00,,,0.00,VWS V13.01,2013-08-14 05:16:00,
2013-08-14 00:17:00,66.0,66.0,29.18,ENE,77,0.0,0.0,100,0.00,,,0.00,VWS V13.01,2013-08-14 05:17:00,
2013-08-14 00:18:00,66.0,66.0,29.18,ENE,77,0.0,0.0,100,0.00,,,0.00,VWS V13.01,2013-08-14 05:18:00,
2013-08-14 00:19:00,66.0,66.0,29.18,ENE,77,0.0,0.0,100,0.00,,,0.00,VWS V13.01,2013-08-14 05:19:00,
2013-08-14 00:20:00,66.0,66.0,29.18,ENE,77,0.0,0.0,100,0.00,,,0.00,VWS V13.01,2013-08-14 05:20:00,
2013-08-14 00:21:00,66.0,66.0,29.18,ENE,77,0.0,0.0,100,0.00,,,0.00,VWS V13.01,2013-08-14 05:21:00,
2013-08-14 00:22:00,66.0,66.0,29.18,ENE,77,0.0,0.0,100,0.00,,,0.00,VWS V13.01,2013-08-14 05:22:00,
2013-08-14 00:23:00,66.0,66.0,29.18,ENE,77,0.0,0.0,100,0.00,,,0.00,VWS V13.01,2013-08-14 05:23:00,
2013-08-14 00:24:00,65.8,65.8,29.18,ENE,77,0.0,0.0,100,0.00,,,0.00,VWS V13.01,2013-08-14 05:24:00,
2013-08-14 00:25:00,65.8,65.8,29.18,ENE,77,0.0,0.0,100,0.00,,,0.00,VWS V13.01,2013-08-14 05:25:00,
2013-08-14 00:26:00,66.0,66.0,29.18,ENE,77,0.0,0.0,100,0.00,,,0.00,VWS V13.01,2013-08-14 05:26:00,
2013-08-14 00:27:00,66.0,66.0,29.18,ENE,77,0.0,0.0,100,0.00,,,0.00,VWS V13.01,2013-08-14 05:27:00,
2013-08-14 00:28:00,66.0,66.0,29.18,ENE,77,0.0,0.0,100,0.00,,,0.00,VWS V13.01,2013-08-14 05:28:00,
2013-08-14 00:29:00,66.0,66.0,29.18,ENE,77,0.0,0.0,100,0.00,,,0.00,VWS V13.01,2013-08-14 05:29:00,
2013-08-14 00:30:00,66.0,66.0,29.18,ENE,77,0.0,0.0,100,0.00,,,0.00,VWS V13.01,2013-08-14 05:30:00,
2013-08-14 00:31:00,66.0,66.0,29.18,ENE,77,0.0,0.0,100,0.00,,,0.00,VWS V13.01,2013-08-14 05:31:00,
2013-08-14 00:32:00,65.8,65.8,29.18,ENE,77,0.0,0.0,100,0.00,,,0.00,VWS V13.01,2013-08-14 05:32:00,
2013-08-14 00:33:00,65.8,65.8,29.18,ENE,77,0.0,0.0,100,0.00,,,0.00,VWS V13.01,2013-08-14 05:33:00,
2013-08-14 00:34:00,65.8,65.8,29.18,ENE,77,0.0,0.0,100,0.00,,,0.00,VWS V13.01,2013-08-14 05:34:00,
2013-08-14 00:35:00,65.8,65.8,29.18,ENE,77,0.0,0.0,100,0.00,,,0.00,VWS V13.01,2013-08-14 05:35:00,
2013-08-14 00:37:00,65.8,65.8,29.18,ENE,77,0.0,0.0,100,0.00,,,0.00,VWS V13.01,2013-08-14 05:37:00,
2013-08-14 00:38:00,65.8,65.8,29.18,ENE,77,0.0,0.0,100,0.00,,,0.00,VWS V13.01,2013-08-14 05:38:00,
2013-08-14 00:39:00,65.8,65.8,29.18,ENE,77,0.0,0.0,100,0.00,,,0.00,VWS V13.01,2013-08-14 05:39:00,
2013-08-14 00:40:00,65.8,65.8,29.18,ENE,77,0.0,0.0,100,0.00,,,0.00,VWS V13.01,2013-08-14 05:40:00,
2013-08-14 00:41:00,65.8,65.8,29.18,ENE,77,0.0,0.0,100,0.00,,,0.00,VWS V13.01,2013-08-14 05:41:00,
2013-08-14 00:42:00,65.8,65.8,29.18,ENE,77,0.0,0.0,100,0.00,,,0.00,VWS V13.01,2013-08-14 05:42:00,
2013-08-14 00:43:00,65.8,65.8,29.18,ENE,77,0.0,0.0,100,0.00,,,0.00,VWS V13.01,2013-08-14 05:43:00,
2013-08-14 00:44:00,65.8,65.8,29.18,ENE,77,0.0,0.0,100,0.00,,,0.00,VWS V13.01,2013-08-14 05:44:00,
2013-08-14 00:45:00,65.8,65.8,29.18,East,82,0.0,0.0,100,0.00,,,0.00,VWS V13.01,2013-08-14 05:45:00,
2013-08-14 00:46:00,65.8,65.8,29.18,East,82,0.0,0.0,100,0.00,,,0.00,VWS V13.01,2013-08-14 05:46:00,
2013-08-14 00:47:00,66.0,66.0,29.18,East,82,0.0,0.0,100,0.00,,,0.00,VWS V13.01,2013-08-14 05:47:00,
2013-08-14 00:48:00,66.0,66.0,29.18,ENE,69,0.0,0.0,100,0.00,,,0.00,VWS V13.01,2013-08-14 05:48:00,
2013-08-14 00:49:00,66.0,66.0,29.18,ENE,71,0.0,0.0,100,0.00,,,0.00,VWS V13.01,2013-08-14 05:49:00,
2013-08-14 00:50:00,66.0,66.0,29.18,ENE,71,0.0,0.0,100,0.00,,,0.00,VWS V13.01,2013-08-14 05:50:00,
2013-08-14 00:51:00,66.0,66.0,29.18,ENE,71,0.0,0.0,100,0.00,,,0.00,VWS V13.01,2013-08-14 05:51:00,
2013-08-14 00:52:00,66.0,66.0,29.18,ENE,67,0.0,0.0,100,0.00,,,0.00,VWS V13.01,2013-08-14 05:52:00,
2013-08-14 00:53:00,66.0,66.0,29.18,ENE,67,0.0,0.0,100,0.00,,,0.00,VWS V13.01,2013-08-14 05:53:00,
2013-08-14 00:54:00,66.0,66.0,29.18,ENE,67,0.0,0.0,100,0.00,,,0.00,VWS V13.01,2013-08-14 05:54:00,
2013-08-14 00:55:00,66.0,66.0,29.18,ENE,67,0.0,0.0,100,0.00,,,0.00,VWS V13.01,2013-08-14 05:55:00,
2013-08-14 00:56:00,65.8,65.8,29.18,ENE,67,0.0,0.0,100,0.00,,,0.00,VWS V13.01,2013-08-14 05:56:00,
2013-08-14 00:57:00,65.8,65.8,29.18,ENE,67,0.0,0.0,100,0.00,,,0.00,VWS V13.01,2013-08-14 05:57:00,
2013-08-14 00:58:00,65.8,65.8,29.18,ENE,67,0.0,0.0,100,0.00,,,0.00,VWS V13.01,2013-08-14 05:58:00,
2013-08-14 00:59:00,65.7,65.7,29.18,ENE,67,0.0,0.0,100,0.00,,,0.00,VWS V13.01,2013-08-14 05:59:00,
2013-08-14 01:00:00,65.5,65.5,29.18,ENE,67,0.0,0.0,100,0.00,,,0.00,VWS V13.01,2013-08-14 06:00:00,
2013-08-14 01:01:00,65.5,65.5,29.18,ENE,67,0.0,0.0,100,0.00,,,0.00,VWS V13.01,2013-08-14 06:01:00,
2013-08-14 01:02:00,65.5,65.5,29.18,ENE,67,0.0,0.0,100,0.00,,,0.00,VWS V13.01,2013-08-14 06:02:00,
2013-08-14 01:03:00,65.3,65.3,29.18,ENE,67,0.0,0.0,100,0.00,,,0.00,VWS V13.01,2013-08-14 06:03:00,
2013-08-14 01:04:00,65.1,65.1,29.18,ENE,67,0.0,0.0,100,0.00,,,0.00,VWS V13.01,2013-08-14 06:04:00,
2013-08-14 01:05:00,65.1,65.1,29.18,ENE,67,0.0,0.0,100,0.00,,,0.00,VWS V13.01,2013-08-14 06:05:00,
2013-08-14 01:06:00,64.9,64.9,29.18,ENE,67,0.0,0.0,100,0.00,,,0.00,VWS V13.01,2013-08-14 06:06:00,
2013-08-14 01:07:00,64.8,64.8,29.18,ENE,67,0.0,0.0,100,0.00,,,0.00,VWS V13.01,2013-08-14 06:07:00,
2013-08-14 01:08:00,64.8,64.8,29.18,ENE,67,0.0,0.0,100,0.00,,,0.00,VWS V13.01,2013-08-14 06:08:00,
2013-08-14 01:09:00,64.8,64.8,29.18,ENE,67,0.0,0.0,100,0.00,,,0.00,VWS V13.01,2013-08-14 06:09:00,
2013-08-14 01:10:00,64.6,64.6,29.18,ENE,67,0.0,0.0,100,0.00,,,0.00,VWS V13.01,2013-08-14 06:10:00,
2013-08-14 01:11:00,64.6,64.6,29.18,ENE,67,0.0,0.0,100,0.00,,,0.00,VWS V13.01,2013-08-14 06:11:00,
2013-08-14 01:12:00,64.6,64.6,29.18,ENE,67,0.0,0.0,100,0.00,,,0.00,VWS V13.01,2013-08-14 06:12:00,
2013-08-14 01:13:00,64.4,64.4,29.18,ENE,67,0.0,0.0,100,0.00,,,0.00,VWS V13.01,2013-08-14 06:13:00,
2013-08-14 01:14:00,64.4,64.4,29.18,ENE,62,0.0,0.0,100,0.00,,,0.00,VWS V13.01,2013-08-14 06:14:00,
2013-08-14 01:15:00,64.6,64.6,29.18,ENE,62,0.0,0.0,100,0.00,,,0.00,VWS V13.01,2013-08-14 06:15:00,
2013-08-14 01:16:00,64.6,64.6,29.18,ENE,62,0.0,0.0,100,0.00,,,0.00,VWS V13.01,2013-08-14 06:16:00,
2013-08-14 01:17:00,64.4,64.4,29.18,ENE,62,0.0,0.0,100,0.00,,,0.00,VWS V13.01,2013-08-14 06:17:00,
2013-08-14 01:18:00,64.4,64.4,29.18,ENE,62,0.0,0.0,100,0.00,,,0.00,VWS V13.01,2013-08-14 06:18:00,
2013-08-14 01:19:00,64.4,64.4,29.18,ENE,62,0.0,0.0,100,0.00,,,0.00,VWS V13.01,2013-08-14 06:19:00,
2013-08-14 01:20:00,64.4,64.4,29.18,ENE,62,0.0,0.0,100,0.00,,,0.00,VWS V13.01,2013-08-14 06:20:00,
2013-08-14 01:21:00,64.4,64.4,29.18,ENE,62,0.0,0.0,100,0.00,,,0.00,VWS V13.01,2013-08-14 06:21:00,
2013-08-14 01:22:00,64.4,64.4,29.18,ENE,62,0.0,0.0,100,0.00,,,0.00,VWS V13.01,2013-08-14 06:22:00,
2013-08-14 01:23:00,64.2,64.2,29.18,ENE,62,0.0,0.0,100,0.00,,,0.00,VWS V13.01,2013-08-14 06:23:00,
2013-08-14 01:24:00,64.2,64.2,29.18,ENE,62,0.0,0.0,100,0.00,,,0.00,VWS V13.01,2013-08-14 06:24:00,
2013-08-14 01:25:00,64.2,64.2,29.18,ENE,62,0.0,0.0,100,0.00,,,0.00,VWS V13.01,2013-08-14 06:25:00,
2013-08-14 01:26:00,64.2,64.2,29.18,ENE,62,0.0,0.0,100,0.00,,,0.00,VWS V13.01,2013-08-14 06:26:00,
2013-08-14 01:27:00,64.4,64.4,29.18,East,83,0.0,0.0,100,0.00,,,0.00,VWS V13.01,2013-08-14 06:27:00,
2013-08-14 01:28:00,64.4,64.4,29.18,East,83,0.0,0.0,100,0.00,,,0.00,VWS V13.01,2013-08-14 06:28:00,
2013-08-14 01:29:00,64.4,64.4,29.18,East,84,0.0,0.0,100,0.00,,,0.00,VWS V13.01,2013-08-14 06:29:00,
2013-08-14 01:30:00,64.6,64.6,29.18,ENE,73,0.0,0.0,100,0.00,,,0.00,VWS V13.01,2013-08-14 06:30:00,
2013-08-14 01:31:00,64.6,64.6,29.18,ENE,73,0.0,0.0,100,0.00,,,0.00,VWS V13.01,2013-08-14 06:31:00,
2013-08-14 01:32:00,64.4,64.4,29.18,ENE,73,0.0,0.0,100,0.00,,,0.00,VWS V13.01,2013-08-14 06:32:00,
2013-08-14 01:33:00,64.4,64.4,29.18,ENE,73,0.0,0.0,100,0.00,,,0.00,VWS V13.01,2013-08-14 06:33:00,
2013-08-14 01:34:00,64.4,64.4,29.18,ENE,73,0.0,0.0,100,0.00,,,0.00,VWS V13.01,2013-08-14 06:34:00,
2013-08-14 01:35:00,64.6,64.6,29.18,ENE,75,0.0,0.0,100,0.00,,,0.00,VWS V13.01,2013-08-14 06:35:00,
2013-08-14 01:36:00,64.6,64.6,29.18,ENE,75,0.0,0.0,100,0.00,,,0.00,VWS V13.01,2013-08-14 06:36:00,
2013-08-14 01:37:00,64.6,64.6,29.18,ENE,57,0.0,0.0,100,0.00,,,0.00,VWS V13.01,2013-08-14 06:37:00,
2013-08-14 01:38:00,64.6,64.6,29.18,ENE,70,0.0,0.0,100,0.00,,,0.00,VWS V13.01,2013-08-14 06:38:00,
2013-08-14 01:39:00,64.6,64.6,29.18,ENE,70,0.0,0.0,100,0.00,,,0.00,VWS V13.01,2013-08-14 06:39:00,
2013-08-14 01:40:00,64.6,64.6,29.18,ENE,74,0.0,0.0,100,0.00,,,0.00,VWS V13.01,2013-08-14 06:40:00,
2013-08-14 01:41:00,64.6,64.6,29.18,ENE,59,0.0,0.0,100,0.00,,,0.00,VWS V13.01,2013-08-14 06:41:00,
2013-08-14 01:42:00,64.6,64.6,29.18,ENE,61,0.0,0.0,100,0.00,,,0.00,VWS V13.01,2013-08-14 06:42:00,
2013-08-14 01:43:00,64.6,64.6,29.18,ENE,61,0.0,0.0,100,0.00,,,0.00,VWS V13.01,2013-08-14 06:43:00,
2013-08-14 01:44:00,64.4,64.4,29.18,ENE,61,0.0,0.0,100,0.00,,,0.00,VWS V13.01,2013-08-14 06:44:00,
2013-08-14 01:45:00,64.4,64.4,29.18,ENE,61,0.0,0.0,100,0.00,,,0.00,VWS V13.01,2013-08-14 06:45:00,
2013-08-14 01:46:00,64.4,64.4,29.18,ENE,61,0.0,0.0,100,0.00,,,0.00,VWS V13.01,2013-08-14 06:46:00,
2013-08-14 01:47:00,64.2,64.2,29.18,ENE,61,0.0,0.0,100,0.00,,,0.00,VWS V13.01,2013-08-14 06:47:00,
2013-08-14 01:48:00,64.2,64.2,29.18,ENE,61,0.0,0.0,100,0.00,,,0.00,VWS V13.01,2013-08-14 06:48:00,
2013-08-14 01:49:00,64.2,64.2,29.18,ENE,65,0.0,0.0,100,0.00,,,0.00,VWS V13.01,2013-08-14 06:49:00,
2013-08-14 01:50:00,64.2,64.2,29.18,ENE,65,0.0,0.0,100,0.00,,,0.00,VWS V13.01,2013-08-14 06:50:00,
2013-08-14 01:51:00,64.2,64.2,29.18,ENE,65,0.0,0.0,100,0.00,,,0.00,VWS V13.01,2013-08-14 06:51:00,
2013-08-14 01:52:00,64.0,64.0,29.18,ENE,65,0.0,0.0,100,0.00,,,0.00,VWS V13.01,2013-08-14 06:52:00,
2013-08-14 01:53:00,64.0,64.0,29.18,ENE,65,0.0,0.0,100,0.00,,,0.00,VWS V13.01,2013-08-14 06:53:00,
2013-08-14 01:54:00,64.0,64.0,29.18,ENE,65,0.0,0.0,100,0.00,,,0.00,VWS V13.01,2013-08-14 06:54:00,
2013-08-14 01:55:00,64.0,64.0,29.18,ENE,65,0.0,0.0,100,0.00,,,0.00,VWS V13.01,2013-08-14 06:55:00,
2013-08-14 01:56:00,64.0,64.0,29.18,ENE,65,0.0,0.0,100,0.00,,,0.00,VWS V13.01,2013-08-14 06:56:00,
2013-08-14 01:57:00,63.9,63.9,29.18,ENE,65,0.0,0.0,100,0.00,,,0.00,VWS V13.01,2013-08-14 06:57:00,
2013-08-14 01:58:00,63.9,63.9,29.18,ENE,65,0.0,0.0,100,0.00,,,0.00,VWS V13.01,2013-08-14 06:58:00,
2013-08-14 01:59:00,63.9,63.9,29.18,ENE,65,0.0,0.0,100,0.00,,,0.00,VWS V13.01,2013-08-14 06:59:00,
2013-08-14 02:00:00,63.9,63.9,29.18,ENE,65,0.0,0.0,100,0.00,,,0.00,VWS V13.01,2013-08-14 07:00:00,
2013-08-14 02:01:00,63.9,63.9,29.18,ENE,65,0.0,0.0,100,0.00,,,0.00,VWS V13.01,2013-08-14 07:01:00,
2013-08-14 02:02:00,63.7,63.7,29.18,ENE,65,0.0,0.0,100,0.00,,,0.00,VWS V13.01,2013-08-14 07:02:00,
2013-08-14 02:03:00,63.7,63.7,29.18,ENE,65,0.0,0.0,100,0.00,,,0.00,VWS V13.01,2013-08-14 07:03:00,
2013-08-14 02:04:00,63.7,63.7,29.18,ENE,65,0.0,0.0,100,0.00,,,0.00,VWS V13.01,2013-08-14 07:04:00,
2013-08-14 02:05:00,63.7,63.7,29.18,ENE,65,0.0,0.0,100,0.00,,,0.00,VWS V13.01,2013-08-14 07:05:00,
2013-08-14 02:06:00,63.7,63.7,29.18,ENE,65,0.0,0.0,100,0.00,,,0.00,VWS V13.01,2013-08-14 07:06:00,
2013-08-14 02:07:00,63.5,63.5,29.18,ENE,65,0.0,0.0,100,0.00,,,0.00,VWS V13.01,2013-08-14 07:07:00,
2013-08-14 02:08:00,63.5,63.5,29.18,ENE,65,0.0,0.0,100,0.00,,,0.00,VWS V13.01,2013-08-14 07:08:00,
2013-08-14 02:09:00,63.5,63.5,29.18,ENE,65,0.0,0.0,100,0.00,,,0.00,VWS V13.01,2013-08-14 07:09:00,
2013-08-14 02:10:00,63.5,63.5,29.18,ENE,65,0.0,0.0,100,0.00,,,0.00,VWS V13.01,2013-08-14 07:10:00,
2013-08-14 02:11:00,63.5,63.5,29.18,ENE,65,0.0,0.0,100,0.00,,,0.00,VWS V13.01,2013-08-14 07:11:00,
2013-08-14 02:12:00,63.5,63.5,29.18,ENE,65,0.0,0.0,100,0.00,,,0.00,VWS V13.01,2013-08-14 07:12:00,
2013-08-14 02:13:00,63.7,63.7,29.18,East,81,0.0,0.0,100,0.00,,,0.00,VWS V13.01,2013-08-14 07:13:00,
2013-08-14 02:14:00,63.5,63.5,29.18,ENE,77,0.0,0.0,100,0.00,,,0.00,VWS V13.01,2013-08-14 07:14:00,
2013-08-14 02:15:00,63.5,63.5,29.18,ENE,77,0.0,0.0,100,0.00,,,0.00,VWS V13.01,2013-08-14 07:15:00,
2013-08-14 02:16:00,63.5,63.5,29.18,ENE,77,0.0,0.0,100,0.00,,,0.00,VWS V13.01,2013-08-14 07:16:00,
2013-08-14 02:17:00,63.5,63.5,29.18,ENE,77,0.0,0.0,100,0.00,,,0.00,VWS V13.01,2013-08-14 07:17:00,
2013-08-14 02:18:00,63.5,63.5,29.18,ENE,77,0.0,0.0,100,0.00,,,0.00,VWS V13.01,2013-08-14 07:18:00,
2013-08-14 02:19:00,63.5,63.5,29.18,ENE,77,0.0,0.0,100,0.00,,,0.00,VWS V13.01,2013-08-14 07:19:00,
2013-08-14 02:20:00,63.5,63.5,29.18,ENE,77,0.0,0.0,100,0.00,,,0.00,VWS V13.01,2013-08-14 07:20:00,
2013-08-14 02:21:00,63.3,63.3,29.18,ENE,77,0.0,0.0,100,0.00,,,0.00,VWS V13.01,2013-08-14 07:21:00,
2013-08-14 02:22:00,63.3,63.3,29.18,ENE,77,0.0,0.0,100,0.00,,,0.00,VWS V13.01,2013-08-14 07:22:00,
2013-08-14 02:23:00,63.3,63.3,29.18,ENE,77,0.0,0.0,100,0.00,,,0.00,VWS V13.01,2013-08-14 07:23:00,
2013-08-14 02:24:00,63.3,63.3,29.18,ENE,77,0.0,0.0,100,0.00,,,0.00,VWS V13.01,2013-08-14 07:24:00,
2013-08-14 02:25:00,63.3,63.3,29.18,ENE,77,0.0,0.0,100,0.00,,,0.00,VWS V13.01,2013-08-14 07:25:00,
2013-08-14 02:26:00,63.3,63.3,29.18,ENE,77,0.0,0.0,100,0.00,,,0.00,VWS V13.01,2013-08-14 07:26:00,
2013-08-14 02:27:00,63.3,63.3,29.18,ENE,77,0.0,0.0,100,0.00,,,0.00,VWS V13.01,2013-08-14 07:27:00,
2013-08-14 02:28:00,63.1,63.1,29.18,ENE,77,0.0,0.0,100,0.00,,,0.00,VWS V13.01,2013-08-14 07:28:00,
2013-08-14 02:29:00,63.1,63.1,29.18,ENE,77,0.0,0.0,100,0.00,,,0.00,VWS V13.01,2013-08-14 07:29:00,
2013-08-14 02:30:00,63.1,63.1,29.18,ENE,77,0.0,0.0,100,0.00,,,0.00,VWS V13.01,2013-08-14 07:30:00,
2013-08-14 02:31:00,63.1,63.1,29.18,ENE,77,0.0,0.0,100,0.00,,,0.00,VWS V13.01,2013-08-14 07:31:00,
2013-08-14 02:32:00,63.0,63.0,29.18,ENE,77,0.0,0.0,100,0.00,,,0.00,VWS V13.01,2013-08-14 07:32:00,
2013-08-14 02:33:00,63.0,63.0,29.18,ENE,77,0.0,0.0,100,0.00,,,0.00,VWS V13.01,2013-08-14 07:33:00,
2013-08-14 02:34:00,63.0,63.0,29.18,ENE,77,0.0,0.0,100,0.00,,,0.00,VWS V13.01,2013-08-14 07:34:00,
2013-08-14 02:35:00,63.0,63.0,29.18,ENE,77,0.0,0.0,100,0.00,,,0.00,VWS V13.01,2013-08-14 07:35:00,
2013-08-14 02:36:00,63.0,63.0,29.18,ENE,77,0.0,0.0,100,0.00,,,0.00,VWS V13.01,2013-08-14 07:36:00,
2013-08-14 02:37:00,63.0,63.0,29.18,ENE,77,0.0,0.0,100,0.00,,,0.00,VWS V13.01,2013-08-14 07:37:00,
2013-08-14 02:38:00,63.0,63.0,29.18,ENE,77,0.0,0.0,100,0.00,,,0.00,VWS V13.01,2013-08-14 07:38:00,
2013-08-14 02:39:00,63.0,63.0,29.18,ENE,77,0.0,0.0,100,0.00,,,0.00,VWS V13.01,2013-08-14 07:39:00,
2013-08-14 02:40:00,63.0,63.0,29.18,ENE,77,0.0,0.0,100,0.00,,,0.00,VWS V13.01,2013-08-14 07:40:00,
2013-08-14 02:41:00,62.8,62.8,29.18,ENE,77,0.0,0.0,100,0.00,,,0.00,VWS V13.01,2013-08-14 07:41:00,
2013-08-14 02:42:00,62.8,62.8,29.18,ENE,77,0.0,0.0,100,0.00,,,0.00,VWS V13.01,2013-08-14 07:42:00,
2013-08-14 02:43:00,62.8,62.8,29.18,ENE,77,0.0,0.0,100,0.00,,,0.00,VWS V13.01,2013-08-14 07:43:00,
2013-08-14 02:44:00,62.6,62.6,29.18,ENE,77,0.0,0.0,100,0.00,,,0.00,VWS V13.01,2013-08-14 07:44:00,
2013-08-14 02:45:00,62.6,62.6,29.18,ENE,77,0.0,0.0,100,0.00,,,0.00,VWS V13.01,2013-08-14 07:45:00,
2013-08-14 02:46:00,62.6,62.6,29.18,ENE,77,0.0,0.0,100,0.00,,,0.00,VWS V13.01,2013-08-14 07:46:00,
2013-08-14 02:47:00,62.6,62.6,29.18,ENE,77,0.0,0.0,100,0.00,,,0.00,VWS V13.01,2013-08-14 07:47:00,
2013-08-14 02:48:00,62.6,62.6,29.18,ENE,77,0.0,0.0,100,0.00,,,0.00,VWS V13.01,2013-08-14 07:48:00,
2013-08-14 02:49:00,62.6,62.6,29.18,ENE,77,0.0,0.0,100,0.00,,,0.00,VWS V13.01,2013-08-14 07:49:00,
2013-08-14 02:50:00,62.6,62.6,29.18,ENE,77,0.0,0.0,100,0.00,,,0.00,VWS V13.01,2013-08-14 07:50:00,
2013-08-14 02:51:00,62.6,62.6,29.18,ENE,77,0.0,0.0,100,0.00,,,0.00,VWS V13.01,2013-08-14 07:51:00,
2013-08-14 02:52:00,62.6,62.6,29.18,ENE,77,0.0,0.0,100,0.00,,,0.00,VWS V13.01,2013-08-14 07:52:00,
2013-08-14 02:53:00,62.6,62.6,29.18,ENE,77,0.0,0.0,100,0.00,,,0.00,VWS V13.01,2013-08-14 07:53:00,
2013-08-14 02:54:00,62.8,62.8,29.18,ENE,77,0.0,0.0,100,0.00,,,0.00,VWS V13.01,2013-08-14 07:54:00,
2013-08-14 02:55:00,62.6,62.6,29.18,ENE,77,0.0,0.0,100,0.00,,,0.00,VWS V13.01,2013-08-14 07:55:00,
2013-08-14 02:56:00,62.6,62.6,29.18,ENE,77,0.0,0.0,100,0.00,,,0.00,VWS V13.01,2013-08-14 07:56:00,
2013-08-14 02:57:00,62.6,62.6,29.18,ENE,77,0.0,0.0,100,0.00,,,0.00,VWS V13.01,2013-08-14 07:57:00,
2013-08-14 02:58:00,62.6,62.6,29.18,ENE,77,0.0,0.0,100,0.00,,,0.00,VWS V13.01,2013-08-14 07:58:00,
2013-08-14 02:59:00,62.8,62.8,29.18,ENE,77,0.0,0.0,100,0.00,,,0.00,VWS V13.01,2013-08-14 07:59:00,
2013-08-14 03:00:00,62.6,62.6,29.18,ENE,77,0.0,0.0,100,0.00,,,0.00,VWS V13.01,2013-08-14 08:00:00,
2013-08-14 03:01:00,62.6,62.6,29.18,ENE,77,0.0,0.0,100,0.00,,,0.00,VWS V13.01,2013-08-14 08:01:00,
2013-08-14 03:02:00,62.6,62.6,29.18,ENE,77,0.0,0.0,100,0.00,,,0.00,VWS V13.01,2013-08-14 08:02:00,
2013-08-14 03:03:00,62.4,62.4,29.18,ENE,77,0.0,0.0,100,0.00,,,0.00,VWS V13.01,2013-08-14 08:03:00,
2013-08-14 03:04:00,62.4,62.4,29.18,ENE,77,0.0,0.0,100,0.00,,,0.00,VWS V13.01,2013-08-14 08:04:00,
2013-08-14 03:05:00,62.4,62.4,29.18,ENE,77,0.0,0.0,100,0.00,,,0.00,VWS V13.01,2013-08-14 08:05:00,
2013-08-14 03:06:00,62.4,62.4,29.18,ENE,77,0.0,0.0,100,0.00,,,0.00,VWS V13.01,2013-08-14 08:06:00,
2013-08-14 03:07:00,62.4,62.4,29.18,ENE,77,0.0,0.0,100,0.00,,,0.00,VWS V13.01,2013-08-14 08:07:00,
2013-08-14 03:08:00,62.4,62.4,29.18,ENE,77,0.0,0.0,100,0.00,,,0.00,VWS V13.01,2013-08-14 08:08:00,
2013-08-14 03:09:00,62.4,62.4,29.18,ENE,77,0.0,0.0,100,0.00,,,0.00,VWS V13.01,2013-08-14 08:09:00,
2013-08-14 03:10:00,62.4,62.4,29.18,ENE,77,0.0,0.0,100,0.00,,,0.00,VWS V13.01,2013-08-14 08:10:00,
2013-08-14 03:11:00,62.4,62.4,29.18,ENE,77,0.0,0.0,100,0.00,,,0.00,VWS V13.01,2013-08-14 08:11:00,
2013-08-14 03:12:00,62.4,62.4,29.18,ENE,77,0.0,0.0,100,0.00,,,0.00,VWS V13.01,2013-08-14 08:12:00,
2013-08-14 03:13:00,62.4,62.4,29.18,ENE,77,0.0,0.0,100,0.00,,,0.00,VWS V13.01,2013-08-14 08:13:00,
2013-08-14 03:14:00,62.4,62.4,29.18,ENE,77,0.0,0.0,100,0.00,,,0.00,VWS V13.01,2013-08-14 08:14:00,
2013-08-14 03:15:00,62.4,62.4,29.18,ENE,77,0.0,0.0,100,0.00,,,0.00,VWS V13.01,2013-08-14 08:15:00,
2013-08-14 03:16:00,62.4,62.4,29.18,ENE,77,0.0,0.0,100,0.00,,,0.00,VWS V13.01,2013-08-14 08:16:00,
2013-08-14 03:17:00,62.6,62.6,29.18,East,90,3.1,3.1,100,0.00,,,0.00,VWS V13.01,2013-08-14 08:17:00,
2013-08-14 03:18:00,62.8,62.8,29.18,ENE,72,0.0,0.0,100,0.00,,,0.00,VWS V13.01,2013-08-14 08:18:00,
2013-08-14 03:19:00,62.8,62.8,29.18,ENE,71,0.0,0.0,100,0.00,,,0.00,VWS V13.01,2013-08-14 08:19:00,
2013-08-14 03:20:00,62.8,62.8,29.18,ENE,71,0.0,0.0,100,0.00,,,0.00,VWS V13.01,2013-08-14 08:20:00,
2013-08-14 03:21:00,62.8,62.8,29.18,ENE,71,0.0,0.0,100,0.00,,,0.00,VWS V13.01,2013-08-14 08:21:00,
2013-08-14 03:22:00,62.8,62.8,29.18,ENE,71,0.0,0.0,100,0.00,,,0.00,VWS V13.01,2013-08-14 08:22:00,
2013-08-14 03:23:00,62.8,62.8,29.18,ENE,71,0.0,0.0,100,0.00,,,0.00,VWS V13.01,2013-08-14 08:23:00,
2013-08-14 03:24:00,62.8,62.8,29.18,ENE,71,0.0,0.0,100,0.00,,,0.00,VWS V13.01,2013-08-14 08:24:00,
2013-08-14 03:25:00,63.0,63.0,29.18,ENE,72,0.0,0.0,100,0.00,,,0.00,VWS V13.01,2013-08-14 08:25:00,
2013-08-14 03:26:00,63.0,63.0,29.18,ENE,72,0.0,0.0,100,0.00,,,0.00,VWS V13.01,2013-08-14 08:26:00,
2013-08-14 03:27:00,63.0,63.0,29.18,East,79,0.0,0.0,100,0.00,,,0.00,VWS V13.01,2013-08-14 08:27:00,
2013-08-14 03:28:00,63.0,63.0,29.18,East,88,3.6,3.6,100,0.00,,,0.00,VWS V13.01,2013-08-14 08:28:00,
2013-08-14 03:29:00,63.1,63.1,29.18,East,85,2.2,2.2,100,0.00,,,0.00,VWS V13.01,2013-08-14 08:29:00,
2013-08-14 03:30:00,63.1,63.1,29.18,East,79,0.0,0.0,100,0.00,,,0.00,VWS V13.01,2013-08-14 08:30:00,
2013-08-14 03:31:00,63.1,63.1,29.18,East,79,0.0,0.0,100,0.00,,,0.00,VWS V13.01,2013-08-14 08:31:00,
2013-08-14 03:32:00,63.1,63.1,29.18,East,81,3.6,3.6,100,0.00,,,0.00,VWS V13.01,2013-08-14 08:32:00,
2013-08-14 03:33:00,63.1,63.1,29.18,ENE,76,0.0,0.0,100,0.00,,,0.00,VWS V13.01,2013-08-14 08:33:00,
2013-08-14 03:34:00,63.1,63.1,29.18,ENE,76,0.0,0.0,100,0.00,,,0.00,VWS V13.01,2013-08-14 08:34:00,
2013-08-14 03:35:00,63.0,63.0,29.18,ENE,76,0.0,0.0,100,0.00,,,0.00,VWS V13.01,2013-08-14 08:35:00,
2013-08-14 03:36:00,63.0,63.0,29.18,ENE,76,0.0,0.0,100,0.00,,,0.00,VWS V13.01,2013-08-14 08:36:00,
2013-08-14 03:37:00,63.0,63.0,29.18,ENE,73,0.0,0.0,100,0.00,,,0.00,VWS V13.01,2013-08-14 08:37:00,
2013-08-14 03:38:00,62.8,62.8,29.18,ENE,74,0.0,0.0,100,0.00,,,0.00,VWS V13.01,2013-08-14 08:38:00,
2013-08-14 03:39:00,62.8,62.8,29.18,ENE,74,0.0,0.0,100,0.00,,,0.00,VWS V13.01,2013-08-14 08:39:00,
2013-08-14 03:40:00,62.8,62.8,29.20,ENE,74,0.0,0.0,100,0.00,,,0.00,VWS V13.01,2013-08-14 08:40:00,
2013-08-14 03:41:00,62.6,62.6,29.20,ENE,74,0.0,0.0,100,0.00,,,0.00,VWS V13.01,2013-08-14 08:41:00,
2013-08-14 03:42:00,62.6,62.6,29.20,ENE,74,0.0,0.0,100,0.00,,,0.00,VWS V13.01,2013-08-14 08:42:00,
2013-08-14 03:43:00,62.6,62.6,29.21,ENE,74,0.0,0.0,100,0.00,,,0.00,VWS V13.01,2013-08-14 08:43:00,
2013-08-14 03:44:00,62.6,62.6,29.21,ENE,74,0.0,0.0,100,0.00,,,0.00,VWS V13.01,2013-08-14 08:44:00,
2013-08-14 03:45:00,62.6,62.6,29.20,NNW,346,0.0,0.0,100,0.00,,,0.00,VWS V13.01,2013-08-14 08:45:00,
2013-08-14 03:46:00,62.4,62.4,29.20,NNW,346,0.0,0.0,100,0.00,,,0.00,VWS V13.01,2013-08-14 08:46:00,
2013-08-14 03:47:00,62.4,62.4,29.20,NNW,346,0.0,0.0,100,0.00,,,0.00,VWS V13.01,2013-08-14 08:47:00,
2013-08-14 03:49:00,62.4,62.4,29.21,NNW,346,0.0,0.0,100,0.00,,,0.00,VWS V13.01,2013-08-14 08:49:00,
2013-08-14 03:50:00,62.4,62.4,29.20,NNW,346,0.0,0.0,100,0.00,,,0.00,VWS V13.01,2013-08-14 08:50:00,
2013-08-14 03:51:00,62.4,62.4,29.20,NNW,346,0.0,0.0,100,0.00,,,0.00,VWS V13.01,2013-08-14 08:51:00,
2013-08-14 03:52:00,62.4,62.4,29.20,NNW,346,0.0,0.0,100,0.00,,,0.00,VWS V13.01,2013-08-14 08:52:00,
2013-08-14 03:53:00,62.4,62.4,29.20,NNW,346,0.0,0.0,100,0.00,,,0.00,VWS V13.01,2013-08-14 08:53:00,
2013-08-14 03:54:00,62.4,62.4,29.21,NNW,346,0.0,0.0,100,0.00,,,0.00,VWS V13.01,2013-08-14 08:54:00,
2013-08-14 03:55:00,62.4,62.4,29.20,NNW,346,0.0,0.0,100,0.00,,,0.00,VWS V13.01,2013-08-14 08:55:00,
2013-08-14 03:56:00,62.4,62.4,29.20,NNW,346,0.0,0.0,100,0.00,,,0.00,VWS V13.01,2013-08-14 08:56:00,
2013-08-14 03:57:00,62.6,62.6,29.20,NNW,346,0.0,0.0,100,0.00,,,0.00,VWS V13.01,2013-08-14 08:57:00,
2013-08-14 03:58:00,62.6,62.6,29.20,NNW,346,0.0,0.0,100,0.00,,,0.00,VWS V13.01,2013-08-14 08:58:00,
2013-08-14 03:59:00,62.6,62.6,29.21,NNW,346,0.0,0.0,100,0.00,,,0.00,VWS V13.01,2013-08-14 08:59:00,
2013-08-14 04:00:00,62.6,62.6,29.20,ENE,62,0.0,0.0,100,0.00,,,0.00,VWS V13.01,2013-08-14 09:00:00,
2013-08-14 04:01:00,62.6,62.6,29.20,ENE,62,0.0,0.0,100,0.00,,,0.00,VWS V13.01,2013-08-14 09:01:00,
2013-08-14 04:02:00,62.8,62.8,29.20,ENE,62,0.0,0.0,100,0.00,,,0.00,VWS V13.01,2013-08-14 09:02:00,
2013-08-14 04:03:00,62.8,62.8,29.20,ENE,62,0.0,0.0,100,0.00,,,0.00,VWS V13.01,2013-08-14 09:03:00,
2013-08-14 17:40:00,76.5,59.1,29.21,North,2,0.0,0.0,55,0.00,,,0.00,VWS V13.01,2013-08-14 22:40:00,
2013-08-14 17:45:00,74.8,50.9,29.21,ENE,65,0.0,0.0,43,0.00,,,0.00,VWS V13.01,2013-08-14 22:45:00,
2013-08-14 17:46:00,74.5,50.5,29.21,North,9,2.7,2.7,43,0.00,,,0.00,VWS V13.01,2013-08-14 22:46:00,
2013-08-14 17:50:00,74.5,50.5,29.21,NNE,23,0.0,0.0,43,0.00,,,0.00,VWS V13.01,2013-08-14 22:50:00,
2013-08-14 17:51:00,74.7,50.7,29.21,NNW,333,0.0,0.0,43,0.00,,,0.00,VWS V13.01,2013-08-14 22:51:00,
2013-08-14 17:55:00,74.8,50.9,29.18,East,89,0.0,0.0,43,0.00,,,0.00,VWS V13.01,2013-08-14 22:55:00,
2013-08-14 17:56:00,74.8,50.9,29.18,NE,51,4.0,4.0,43,0.00,,,0.00,VWS V13.01,2013-08-14 22:56:00,
2013-08-14 17:57:00,75.2,47.2,29.18,ENE,63,4.0,4.0,37,0.00,,,0.00,VWS V13.01,2013-08-14 22:57:00,
2013-08-14 18:01:00,74.7,50.7,29.18,NE,52,0.0,0.0,43,0.00,,,0.00,VWS V13.01,2013-08-14 23:01:00,
2013-08-14 18:02:00,74.5,50.5,29.18,ESE,103,2.7,2.7,43,0.00,,,0.00,VWS V13.01,2013-08-14 23:02:00,
2013-08-14 18:04:00,74.5,50.5,29.18,NNE,31,0.0,0.0,43,0.00,,,0.00,VWS V13.01,2013-08-14 23:04:00,
2013-08-14 18:06:00,74.7,50.7,29.18,NE,46,0.0,0.0,43,0.00,,,0.00,VWS V13.01,2013-08-14 23:06:00,
2013-08-14 18:07:00,74.3,50.4,29.18,ENE,64,2.7,2.7,43,0.00,,,0.00,VWS V13.01,2013-08-14 23:07:00,
2013-08-14 18:09:00,74.1,50.2,29.18,ENE,68,2.2,2.2,43,0.00,,,0.00,VWS V13.01,2013-08-14 23:09:00,
2013-08-14 18:11:00,74.3,50.4,29.18,ENE,61,3.6,3.6,43,0.00,,,0.00,VWS V13.01,2013-08-14 23:11:00,
2013-08-14 18:12:00,74.5,50.5,29.18,East,89,3.1,3.1,43,0.00,,,0.00,VWS V13.01,2013-08-14 23:12:00,
2013-08-14 18:15:00,74.5,50.5,29.18,East,88,3.1,3.1,43,0.00,,,0.00,VWS V13.01,2013-08-14 23:15:00,
2013-08-14 18:16:00,74.3,50.4,29.18,ENE,65,3.6,3.6,43,0.00,,,0.00,VWS V13.01,2013-08-14 23:16:00,
2013-08-14 18:17:00,74.3,50.4,29.18,North,8,2.2,2.2,43,0.00,,,0.00,VWS V13.01,2013-08-14 23:17:00,
2013-08-14 18:18:00,74.5,50.5,29.18,ENE,57,3.1,3.1,43,0.00,,,0.00,VWS V13.01,2013-08-14 23:18:00,
2013-08-14 18:21:00,74.8,50.9,29.18,NE,55,3.1,3.1,43,0.00,,,0.00,VWS V13.01,2013-08-14 23:21:00,
2013-08-14 18:22:00,74.8,50.9,29.18,ESE,108,0.0,0.0,43,0.00,,,0.00,VWS V13.01,2013-08-14 23:22:00,
2013-08-14 18:23:00,74.8,50.9,29.18,ENE,72,0.0,0.0,43,0.00,,,0.00,VWS V13.01,2013-08-14 23:23:00,
2013-08-14 18:26:00,74.8,50.9,29.18,NNE,13,0.0,0.0,43,0.00,,,0.00,VWS V13.01,2013-08-14 23:26:00,
2013-08-14 18:27:00,74.8,50.9,29.18,NNE,15,0.0,0.0,43,0.00,,,0.00,VWS V13.01,2013-08-14 23:27:00,
2013-08-14 18:28:00,74.1,50.2,29.18,East,81,5.4,5.4,43,0.00,,,0.00,VWS V13.01,2013-08-14 23:28:00,
2013-08-14 18:31:00,74.3,50.4,29.18,NE,56,0.0,0.0,43,0.00,,,0.00,VWS V13.01,2013-08-14 23:31:00,
2013-08-14 18:32:00,74.3,50.4,29.18,ENE,58,0.0,0.0,43,0.00,,,0.00,VWS V13.01,2013-08-14 23:32:00,
2013-08-14 18:33:00,74.1,50.2,29.18,ENE,77,0.0,0.0,43,0.00,,,0.00,VWS V13.01,2013-08-14 23:33:00,
2013-08-14 18:36:00,73.9,50.1,29.18,East,84,2.7,2.7,43,0.00,,,0.00,VWS V13.01,2013-08-14 23:36:00,
2013-08-14 18:37:00,73.9,50.1,29.18,ENE,74,3.6,3.6,43,0.00,,,0.00,VWS V13.01,2013-08-14 23:37:00,
2013-08-14 18:38:00,73.6,49.7,29.18,ENE,75,3.1,3.1,43,0.00,,,0.00,VWS V13.01,2013-08-14 23:38:00,
2013-08-14 18:41:00,73.6,49.7,29.18,East,84,0.0,0.0,43,0.00,,,0.00,VWS V13.01,2013-08-14 23:41:00,
2013-08-14 18:42:00,73.4,49.6,29.18,ENE,74,0.0,0.0,43,0.00,,,0.00,VWS V13.01,2013-08-14 23:42:00,
2013-08-14 18:43:00,73.4,49.6,29.18,NE,41,0.0,0.0,43,0.00,,,0.00,VWS V13.01,2013-08-14 23:43:00,
2013-08-14 18:46:00,72.9,49.1,29.18,East,91,0.0,0.0,43,0.00,,,0.00,VWS V13.01,2013-08-14 23:46:00,
2013-08-14 18:47:00,72.9,49.1,29.18,ENE,73,0.0,0.0,43,0.00,,,0.00,VWS V13.01,2013-08-14 23:47:00,
2013-08-14 18:48:00,72.9,49.1,29.18,ENE,62,0.0,0.0,43,0.00,,,0.00,VWS V13.01,2013-08-14 23:48:00,
2013-08-14 18:51:00,72.7,48.9,29.18,East,90,0.0,0.0,43,0.00,,,0.00,VWS V13.01,2013-08-14 23:51:00,
2013-08-14 18:52:00,72.5,48.8,29.18,ENE,72,3.6,3.6,43,0.00,,,0.00,VWS V13.01,2013-08-14 23:52:00,
2013-08-14 18:53:00,72.7,48.9,29.18,ENE,78,2.2,2.2,43,0.00,,,0.00,VWS V13.01,2013-08-14 23:53:00,
2013-08-14 18:56:00,72.3,48.6,29.15,ENE,59,0.0,0.0,43,0.00,,,0.00,VWS V13.01,2013-08-14 23:56:00,
2013-08-14 18:57:00,72.3,48.6,29.15,ENE,59,0.0,0.0,43,0.00,,,0.00,VWS V13.01,2013-08-14 23:57:00,
2013-08-14 18:58:00,72.1,48.4,29.15,ENE,76,0.0,0.0,43,0.00,,,0.00,VWS V13.01,2013-08-14 23:58:00,
2013-08-14 19:01:00,72.1,48.4,29.15,NNE,30,0.0,0.0,43,0.00,,,0.00,VWS V13.01,2013-08-15 00:01:00,
2013-08-14 19:02:00,72.1,48.4,29.15,NNE,30,0.0,0.0,43,0.00,,,0.00,VWS V13.01,2013-08-15 00:02:00,
2013-08-14 19:03:00,72.0,48.3,29.15,ENE,72,0.0,0.0,43,0.00,,,0.00,VWS V13.01,2013-08-15 00:03:00,
2013-08-14 19:04:00,72.0,48.3,29.15,NE,34,0.0,0.0,43,0.00,,,0.00,VWS V13.01,2013-08-15 00:04:00,
2013-08-14 19:06:00,72.0,48.3,29.15,ENE,61,0.0,0.0,43,0.00,,,0.00,VWS V13.01,2013-08-15 00:06:00,
2013-08-14 19:07:00,72.0,48.3,29.15,NE,55,0.0,0.0,43,0.00,,,0.00,VWS V13.01,2013-08-15 00:07:00,
2013-08-14 19:08:00,71.6,47.9,29.15,ENE,75,0.0,0.0,43,0.00,,,0.00,VWS V13.01,2013-08-15 00:08:00,
2013-08-14 19:09:00,71.8,48.1,29.15,ENE,78,0.0,0.0,43,0.00,,,0.00,VWS V13.01,2013-08-15 00:09:00,
2013-08-14 19:11:00,71.6,47.9,29.18,ENE,77,0.0,0.0,43,0.00,,,0.00,VWS V13.01,2013-08-15 00:11:00,
2013-08-14 19:12:00,71.6,47.9,29.18,East,80,0.0,0.0,43,0.00,,,0.00,VWS V13.01,2013-08-15 00:12:00,
2013-08-14 19:13:00,71.4,51.3,29.18,ENE,73,0.0,0.0,49,0.00,,,0.00,VWS V13.01,2013-08-15 00:13:00,
2013-08-14 19:14:00,71.4,51.3,29.18,ENE,62,0.0,0.0,49,0.00,,,0.00,VWS V13.01,2013-08-15 00:14:00,
2013-08-14 19:17:00,71.4,51.3,29.18,ENE,62,0.0,0.0,49,0.00,,,0.00,VWS V13.01,2013-08-15 00:17:00,
2013-08-14 19:18:00,71.4,51.3,29.18,ENE,62,0.0,0.0,49,0.00,,,0.00,VWS V13.01,2013-08-15 00:18:00,
2013-08-14 19:19:00,71.1,51.0,29.18,NE,51,0.0,0.0,49,0.00,,,0.00,VWS V13.01,2013-08-15 00:19:00,
2013-08-14 19:22:00,70.7,50.6,29.18,ENE,71,0.0,0.0,49,0.00,,,0.00,VWS V13.01,2013-08-15 00:22:00,
2013-08-14 19:23:00,70.7,50.6,29.18,ENE,71,0.0,0.0,49,0.00,,,0.00,VWS V13.01,2013-08-15 00:23:00,
2013-08-14 19:24:00,70.5,50.5,29.18,ENE,63,0.0,0.0,49,0.00,,,0.00,VWS V13.01,2013-08-15 00:24:00,
2013-08-14 19:27:00,70.2,50.1,29.18,ENE,63,0.0,0.0,49,0.00,,,0.00,VWS V13.01,2013-08-15 00:27:00,
2013-08-14 19:28:00,70.2,50.1,29.18,ENE,63,0.0,0.0,49,0.00,,,0.00,VWS V13.01,2013-08-15 00:28:00,
2013-08-14 19:29:00,70.0,50.0,29.18,ENE,78,0.0,0.0,49,0.00,,,0.00,VWS V13.01,2013-08-15 00:29:00,
2013-08-14 19:32:00,70.0,50.0,29.18,ENE,72,0.0,0.0,49,0.00,,,0.00,VWS V13.01,2013-08-15 00:32:00,
2013-08-14 19:33:00,70.0,50.0,29.18,ENE,76,0.0,0.0,49,0.00,,,0.00,VWS V13.01,2013-08-15 00:33:00,
2013-08-14 19:34:00,69.8,49.8,29.18,ENE,76,0.0,0.0,49,0.00,,,0.00,VWS V13.01,2013-08-15 00:34:00,
2013-08-14 19:37:00,69.4,49.5,29.18,ENE,78,0.0,0.0,49,0.00,,,0.00,VWS V13.01,2013-08-15 00:37:00,
2013-08-14 19:38:00,69.4,49.5,29.18,ENE,78,0.0,0.0,49,0.00,,,0.00,VWS V13.01,2013-08-15 00:38:00,
2013-08-14 19:39:00,69.4,49.5,29.18,East,79,0.0,0.0,49,0.00,,,0.00,VWS V13.01,2013-08-15 00:39:00,
2013-08-14 19:42:00,69.3,49.3,29.18,East,79,0.0,0.0,49,0.00,,,0.00,VWS V13.01,2013-08-15 00:42:00,
2013-08-14 19:43:00,69.1,49.1,29.18,East,79,0.0,0.0,49,0.00,,,0.00,VWS V13.01,2013-08-15 00:43:00,
2013-08-14 19:44:00,69.1,49.1,29.18,East,79,0.0,0.0,49,0.00,,,0.00,VWS V13.01,2013-08-15 00:44:00,
2013-08-14 19:47:00,68.7,48.8,29.18,East,88,0.0,0.0,49,0.00,,,0.00,VWS V13.01,2013-08-15 00:47:00,
2013-08-14 19:48:00,68.7,48.8,29.18,ENE,78,0.0,0.0,49,0.00,,,0.00,VWS V13.01,2013-08-15 00:48:00,
2013-08-14 19:49:00,68.7,48.8,29.18,East,81,0.0,0.0,49,0.00,,,0.00,VWS V13.01,2013-08-15 00:49:00,
2013-08-14 19:52:00,68.5,48.6,29.18,East,81,0.0,0.0,49,0.00,,,0.00,VWS V13.01,2013-08-15 00:52:00,
2013-08-14 19:53:00,68.5,48.6,29.18,East,81,0.0,0.0,49,0.00,,,0.00,VWS V13.01,2013-08-15 00:53:00,
2013-08-14 19:54:00,68.5,48.6,29.18,East,81,0.0,0.0,49,0.00,,,0.00,VWS V13.01,2013-08-15 00:54:00,
2013-08-14 19:58:00,68.4,48.5,29.18,East,81,0.0,0.0,49,0.00,,,0.00,VWS V13.01,2013-08-15 00:58:00,
2013-08-14 19:59:00,68.4,48.5,29.18,East,81,0.0,0.0,49,0.00,,,0.00,VWS V13.01,2013-08-15 00:59:00,
2013-08-14 20:03:00,68.2,48.3,29.18,East,81,0.0,0.0,49,0.00,,,0.00,VWS V13.01,2013-08-15 01:03:00,
2013-08-14 20:04:00,68.2,48.3,29.18,East,83,0.0,0.0,49,0.00,,,0.00,VWS V13.01,2013-08-15 01:04:00,
2013-08-14 20:08:00,67.8,48.0,29.18,ENE,78,0.0,0.0,49,0.00,,,0.00,VWS V13.01,2013-08-15 01:08:00,
2013-08-14 20:09:00,67.8,48.0,29.18,ENE,78,0.0,0.0,49,0.00,,,0.00,VWS V13.01,2013-08-15 01:09:00,
2013-08-14 20:13:00,67.6,47.8,29.18,East,79,0.0,0.0,49,0.00,,,0.00,VWS V13.01,2013-08-15 01:13:00,
2013-08-14 20:14:00,67.5,47.7,29.18,East,81,0.0,0.0,49,0.00,,,0.00,VWS V13.01,2013-08-15 01:14:00,
2013-08-14 20:15:00,67.5,47.7,29.18,East,81,0.0,0.0,49,0.00,,,0.00,VWS V13.01,2013-08-15 01:15:00,
2013-08-14 20:18:00,67.3,47.5,29.18,ENE,70,0.0,0.0,49,0.00,,,0.00,VWS V13.01,2013-08-15 01:18:00,
2013-08-14 20:19:00,67.1,47.3,29.18,ENE,70,0.0,0.0,49,0.00,,,0.00,VWS V13.01,2013-08-15 01:19:00,
2013-08-14 20:20:00,67.1,47.3,29.18,ENE,70,0.0,0.0,49,0.00,,,0.00,VWS V13.01,2013-08-15 01:20:00,
2013-08-14 20:23:00,66.9,47.2,29.18,ENE,70,0.0,0.0,49,0.00,,,0.00,VWS V13.01,2013-08-15 01:23:00,
2013-08-14 20:24:00,66.7,47.0,29.18,ENE,70,0.0,0.0,49,0.00,,,0.00,VWS V13.01,2013-08-15 01:24:00,
2013-08-14 20:25:00,66.7,47.0,29.18,ENE,70,0.0,0.0,49,0.00,,,0.00,VWS V13.01,2013-08-15 01:25:00,
2013-08-14 20:28:00,66.4,46.7,29.18,ENE,70,0.0,0.0,49,0.00,,,0.00,VWS V13.01,2013-08-15 01:28:00,
2013-08-14 20:29:00,66.4,46.7,29.18,ENE,70,0.0,0.0,49,0.00,,,0.00,VWS V13.01,2013-08-15 01:29:00,
2013-08-14 20:30:00,66.4,46.7,29.18,ENE,70,0.0,0.0,49,0.00,,,0.00,VWS V13.01,2013-08-15 01:30:00,
2013-08-14 20:31:00,66.2,46.5,29.18,ENE,70,0.0,0.0,49,0.00,,,0.00,VWS V13.01,2013-08-15 01:31:00,
2013-08-14 20:34:00,66.0,49.4,29.18,ENE,70,0.0,0.0,55,0.00,,,0.00,VWS V13.01,2013-08-15 01:34:00,
2013-08-14 20:35:00,66.2,46.5,29.18,ENE,70,0.0,0.0,49,0.00,,,0.00,VWS V13.01,2013-08-15 01:35:00,
2013-08-14 20:36:00,66.4,46.7,29.18,ENE,70,0.0,0.0,49,0.00,,,0.00,VWS V13.01,2013-08-15 01:36:00,
2013-08-14 20:39:00,66.2,46.5,29.18,ENE,70,0.0,0.0,49,0.00,,,0.00,VWS V13.01,2013-08-15 01:39:00,
2013-08-14 20:40:00,66.2,46.5,29.18,ENE,70,0.0,0.0,49,0.00,,,0.00,VWS V13.01,2013-08-15 01:40:00,
2013-08-14 20:41:00,66.2,46.5,29.18,ENE,70,0.0,0.0,49,0.00,,,0.00,VWS V13.01,2013-08-15 01:41:00,
2013-08-14 20:44:00,66.0,49.4,29.18,ENE,70,0.0,0.0,55,0.00,,,0.00,VWS V13.01,2013-08-15 01:44:00,
2013-08-14 20:45:00,66.0,49.4,29.18,ENE,70,0.0,0.0,55,0.00,,,0.00,VWS V13.01,2013-08-15 01:45:00,
2013-08-14 20:46:00,66.0,49.4,29.18,ENE,70,0.0,0.0,55,0.00,,,0.00,VWS V13.01,2013-08-15 01:46:00,
2013-08-14 20:49:00,66.0,49.4,29.18,ENE,70,0.0,0.0,55,0.00,,,0.00,VWS V13.01,2013-08-15 01:49:00,
2013-08-14 20:50:00,65.8,49.2,29.18,ENE,70,0.0,0.0,55,0.00,,,0.00,VWS V13.01,2013-08-15 01:50:00,
2013-08-14 20:51:00,65.8,49.2,29.18,ENE,70,0.0,0.0,55,0.00,,,0.00,VWS V13.01,2013-08-15 01:51:00,
2013-08-14 20:54:00,65.7,49.1,29.18,ENE,70,0.0,0.0,55,0.00,,,0.00,VWS V13.01,2013-08-15 01:54:00,
2013-08-14 20:55:00,65.7,49.1,29.18,ENE,70,0.0,0.0,55,0.00,,,0.00,VWS V13.01,2013-08-15 01:55:00,
2013-08-14 20:56:00,65.7,49.1,29.18,ENE,70,0.0,0.0,55,0.00,,,0.00,VWS V13.01,2013-08-15 01:56:00,
2013-08-14 20:59:00,65.7,49.1,29.18,ENE,70,0.0,0.0,55,0.00,,,0.00,VWS V13.01,2013-08-15 01:59:00,
2013-08-14 21:00:00,65.7,49.1,29.18,ENE,70,0.0,0.0,55,0.00,,,0.00,VWS V13.01,2013-08-15 02:00:00,
2013-08-14 21:01:00,65.7,49.1,29.18,ENE,70,0.0,0.0,55,0.00,,,0.00,VWS V13.01,2013-08-15 02:01:00,
2013-08-14 21:04:00,65.7,49.1,29.18,ENE,70,0.0,0.0,55,0.00,,,0.00,VWS V13.01,2013-08-15 02:04:00,
2013-08-14 21:05:00,65.5,48.9,29.18,ENE,70,0.0,0.0,55,0.00,,,0.00,VWS V13.01,2013-08-15 02:05:00,
2013-08-14 21:06:00,65.5,48.9,29.18,ENE,70,0.0,0.0,55,0.00,,,0.00,VWS V13.01,2013-08-15 02:06:00,
2013-08-14 21:09:00,65.5,48.9,29.18,ENE,70,0.0,0.0,55,0.00,,,0.00,VWS V13.01,2013-08-15 02:09:00,
2013-08-14 21:10:00,65.5,48.9,29.18,ENE,70,0.0,0.0,55,0.00,,,0.00,VWS V13.01,2013-08-15 02:10:00,
2013-08-14 21:11:00,65.5,48.9,29.18,ENE,70,0.0,0.0,55,0.00,,,0.00,VWS V13.01,2013-08-15 02:11:00,
2013-08-14 21:14:00,65.3,48.7,29.18,ENE,70,0.0,0.0,55,0.00,,,0.00,VWS V13.01,2013-08-15 02:14:00,
2013-08-14 21:15:00,65.3,48.7,29.18,ENE,70,0.0,0.0,55,0.00,,,0.00,VWS V13.01,2013-08-15 02:15:00,
2013-08-14 21:16:00,65.3,48.7,29.18,ENE,70,0.0,0.0,55,0.00,,,0.00,VWS V13.01,2013-08-15 02:16:00,
2013-08-14 21:19:00,65.1,48.6,29.18,ENE,70,0.0,0.0,55,0.00,,,0.00,VWS V13.01,2013-08-15 02:19:00,
2013-08-14 21:20:00,65.1,48.6,29.18,ENE,70,0.0,0.0,55,0.00,,,0.00,VWS V13.01,2013-08-15 02:20:00,
2013-08-14 21:21:00,65.1,48.6,29.18,ENE,70,0.0,0.0,55,0.00,,,0.00,VWS V13.01,2013-08-15 02:21:00,
2013-08-14 21:22:00,65.1,48.6,29.18,ENE,70,0.0,0.0,55,0.00,,,0.00,VWS V13.01,2013-08-15 02:22:00,
2013-08-14 21:25:00,65.1,48.6,29.18,ENE,70,0.0,0.0,55,0.00,,,0.00,VWS V13.01,2013-08-15 02:25:00,
2013-08-14 21:26:00,65.1,48.6,29.18,ENE,70,0.0,0.0,55,0.00,,,0.00,VWS V13.01,2013-08-15 02:26:00,
2013-08-14 21:27:00,64.9,48.4,29.18,ENE,70,0.0,0.0,55,0.00,,,0.00,VWS V13.01,2013-08-15 02:27:00,
2013-08-14 21:30:00,64.8,48.2,29.18,ENE,70,0.0,0.0,55,0.00,,,0.00,VWS V13.01,2013-08-15 02:30:00,
2013-08-14 21:31:00,64.8,48.2,29.18,ENE,70,0.0,0.0,55,0.00,,,0.00,VWS V13.01,2013-08-15 02:31:00,
2013-08-14 21:32:00,64.8,48.2,29.18,ENE,70,0.0,0.0,55,0.00,,,0.00,VWS V13.01,2013-08-15 02:32:00,
2013-08-14 21:35:00,64.6,48.1,29.18,ENE,70,0.0,0.0,55,0.00,,,0.00,VWS V13.01,2013-08-15 02:35:00,
2013-08-14 21:36:00,64.6,48.1,29.18,ENE,70,0.0,0.0,55,0.00,,,0.00,VWS V13.01,2013-08-15 02:36:00,
2013-08-14 21:37:00,64.6,48.1,29.18,ENE,70,0.0,0.0,55,0.00,,,0.00,VWS V13.01,2013-08-15 02:37:00,
2013-08-14 21:40:00,64.6,48.1,29.18,ENE,70,0.0,0.0,55,0.00,,,0.00,VWS V13.01,2013-08-15 02:40:00,
2013-08-14 21:41:00,64.6,48.1,29.18,ENE,70,0.0,0.0,55,0.00,,,0.00,VWS V13.01,2013-08-15 02:41:00,
2013-08-14 21:42:00,64.6,48.1,29.18,ENE,70,0.0,0.0,55,0.00,,,0.00,VWS V13.01,2013-08-15 02:42:00,
2013-08-14 21:45:00,64.6,48.1,29.18,ENE,70,0.0,0.0,55,0.00,,,0.00,VWS V13.01,2013-08-15 02:45:00,
2013-08-14 21:46:00,64.6,48.1,29.18,ENE,70,0.0,0.0,55,0.00,,,0.00,VWS V13.01,2013-08-15 02:46:00,
2013-08-14 21:47:00,64.6,48.1,29.18,ENE,70,0.0,0.0,55,0.00,,,0.00,VWS V13.01,2013-08-15 02:47:00,
2013-08-14 21:50:00,64.4,47.9,29.18,ENE,70,0.0,0.0,55,0.00,,,0.00,VWS V13.01,2013-08-15 02:50:00,
2013-08-14 21:51:00,64.4,47.9,29.18,ENE,70,0.0,0.0,55,0.00,,,0.00,VWS V13.01,2013-08-15 02:51:00,
2013-08-14 21:52:00,64.4,47.9,29.18,ENE,70,0.0,0.0,55,0.00,,,0.00,VWS V13.01,2013-08-15 02:52:00,
2013-08-14 21:55:00,64.2,47.7,29.18,ENE,70,0.0,0.0,55,0.00,,,0.00,VWS V13.01,2013-08-15 02:55:00,
2013-08-14 21:56:00,64.2,47.7,29.18,ENE,70,0.0,0.0,55,0.00,,,0.00,VWS V13.01,2013-08-15 02:56:00,
2013-08-14 21:57:00,64.2,55.4,29.18,ENE,70,0.0,0.0,73,0.00,,,0.00,VWS V13.01,2013-08-15 02:57:00,
2013-08-14 22:00:00,64.2,55.4,29.18,ENE,70,0.0,0.0,73,0.00,,,0.00,VWS V13.01,2013-08-15 03:00:00,
2013-08-14 22:01:00,64.2,55.4,29.18,ENE,70,0.0,0.0,73,0.00,,,0.00,VWS V13.01,2013-08-15 03:01:00,
2013-08-14 22:02:00,64.2,55.4,29.18,ENE,70,0.0,0.0,73,0.00,,,0.00,VWS V13.01,2013-08-15 03:02:00,
2013-08-14 22:05:00,64.2,55.4,29.18,ENE,70,0.0,0.0,73,0.00,,,0.00,VWS V13.01,2013-08-15 03:05:00,
2013-08-14 22:06:00,64.2,55.4,29.18,ENE,70,0.0,0.0,73,0.00,,,0.00,VWS V13.01,2013-08-15 03:06:00,
2013-08-14 22:07:00,64.2,55.4,29.18,ENE,70,0.0,0.0,73,0.00,,,0.00,VWS V13.01,2013-08-15 03:07:00,
2013-08-14 22:10:00,64.2,55.4,29.21,ENE,70,0.0,0.0,73,0.00,,,0.00,VWS V13.01,2013-08-15 03:10:00,
2013-08-14 22:11:00,64.2,55.4,29.21,ENE,70,0.0,0.0,73,0.00,,,0.00,VWS V13.01,2013-08-15 03:11:00,
2013-08-14 22:12:00,64.0,55.2,29.21,ENE,70,0.0,0.0,73,0.00,,,0.00,VWS V13.01,2013-08-15 03:12:00,
2013-08-14 22:15:00,64.0,55.2,29.21,ENE,70,0.0,0.0,73,0.00,,,0.00,VWS V13.01,2013-08-15 03:15:00,
2013-08-14 22:16:00,64.2,55.4,29.21,ENE,70,0.0,0.0,73,0.00,,,0.00,VWS V13.01,2013-08-15 03:16:00,
2013-08-14 22:17:00,64.2,55.4,29.21,ENE,70,0.0,0.0,73,0.00,,,0.00,VWS V13.01,2013-08-15 03:17:00,
2013-08-14 22:20:00,64.2,55.4,29.21,ENE,70,0.0,0.0,73,0.00,,,0.00,VWS V13.01,2013-08-15 03:20:00,
2013-08-14 22:21:00,64.2,55.4,29.21,ENE,70,0.0,0.0,73,0.00,,,0.00,VWS V13.01,2013-08-15 03:21:00,
2013-08-14 22:23:00,64.2,55.4,29.21,ENE,70,0.0,0.0,73,0.00,,,0.00,VWS V13.01,2013-08-15 03:23:00,
2013-08-14 22:25:00,64.0,55.2,29.18,ENE,70,0.0,0.0,73,0.00,,,0.00,VWS V13.01,2013-08-15 03:25:00,
2013-08-14 22:26:00,64.0,55.2,29.18,ENE,70,0.0,0.0,73,0.00,,,0.00,VWS V13.01,2013-08-15 03:26:00,
2013-08-14 22:27:00,64.0,55.2,29.18,ENE,70,0.0,0.0,73,0.00,,,0.00,VWS V13.01,2013-08-15 03:27:00,
2013-08-14 22:28:00,64.0,55.2,29.18,ENE,70,0.0,0.0,73,0.00,,,0.00,VWS V13.01,2013-08-15 03:28:00,
2013-08-14 22:31:00,63.9,55.0,29.18,ENE,70,0.0,0.0,73,0.00,,,0.00,VWS V13.01,2013-08-15 03:31:00,
2013-08-14 22:32:00,63.9,55.0,29.18,ENE,70,0.0,0.0,73,0.00,,,0.00,VWS V13.01,2013-08-15 03:32:00,
2013-08-14 22:33:00,63.9,55.0,29.18,ENE,70,0.0,0.0,73,0.00,,,0.00,VWS V13.01,2013-08-15 03:33:00,
2013-08-14 22:36:00,63.7,54.9,29.18,ENE,70,0.0,0.0,73,0.00,,,0.00,VWS V13.01,2013-08-15 03:36:00,
2013-08-14 22:37:00,63.5,54.7,29.18,ENE,70,0.0,0.0,73,0.00,,,0.00,VWS V13.01,2013-08-15 03:37:00,
2013-08-14 22:38:00,63.5,54.7,29.18,ENE,70,0.0,0.0,73,0.00,,,0.00,VWS V13.01,2013-08-15 03:38:00,
2013-08-14 22:41:00,63.5,54.7,29.21,ENE,70,0.0,0.0,73,0.00,,,0.00,VWS V13.01,2013-08-15 03:41:00,
2013-08-14 22:42:00,63.3,54.5,29.21,ENE,70,0.0,0.0,73,0.00,,,0.00,VWS V13.01,2013-08-15 03:42:00,
2013-08-14 22:43:00,63.3,54.5,29.21,ENE,70,0.0,0.0,73,0.00,,,0.00,VWS V13.01,2013-08-15 03:43:00,
2013-08-14 22:46:00,63.1,54.3,29.21,ENE,70,0.0,0.0,73,0.00,,,0.00,VWS V13.01,2013-08-15 03:46:00,
2013-08-14 22:47:00,63.0,54.2,29.21,ENE,70,0.0,0.0,73,0.00,,,0.00,VWS V13.01,2013-08-15 03:47:00,
2013-08-14 22:48:00,63.0,54.2,29.21,ENE,70,0.0,0.0,73,0.00,,,0.00,VWS V13.01,2013-08-15 03:48:00,
2013-08-14 22:51:00,63.0,54.2,29.21,ENE,70,0.0,0.0,73,0.00,,,0.00,VWS V13.01,2013-08-15 03:51:00,
2013-08-14 22:52:00,63.0,54.2,29.21,ENE,70,0.0,0.0,73,0.00,,,0.00,VWS V13.01,2013-08-15 03:52:00,
2013-08-14 22:53:00,62.8,54.0,29.21,ENE,70,0.0,0.0,73,0.00,,,0.00,VWS V13.01,2013-08-15 03:53:00,
2013-08-14 22:56:00,63.0,54.2,29.21,ENE,70,0.0,0.0,73,0.00,,,0.00,VWS V13.01,2013-08-15 03:56:00,
2013-08-14 22:57:00,63.0,54.2,29.21,ENE,70,0.0,0.0,73,0.00,,,0.00,VWS V13.01,2013-08-15 03:57:00,
2013-08-14 22:58:00,63.0,54.2,29.21,ENE,70,0.0,0.0,73,0.00,,,0.00,VWS V13.01,2013-08-15 03:58:00,
2013-08-14 23:01:00,63.0,54.2,29.21,ENE,74,0.0,0.0,73,0.00,,,0.00,VWS V13.01,2013-08-15 04:01:00,
2013-08-14 23:06:00,63.0,54.2,29.21,ENE,74,0.0,0.0,73,0.00,,,0.00,VWS V13.01,2013-08-15 04:06:00,
2013-08-14 23:11:00,63.1,54.3,29.21,ENE,75,0.0,0.0,73,0.00,,,0.00,VWS V13.01,2013-08-15 04:11:00,
2013-08-14 23:16:00,63.0,54.2,29.21,ENE,71,0.0,0.0,73,0.00,,,0.00,VWS V13.01,2013-08-15 04:16:00,
2013-08-14 23:21:00,62.6,53.8,29.21,ENE,71,0.0,0.0,73,0.00,,,0.00,VWS V13.01,2013-08-15 04:21:00,
2013-08-14 23:26:00,62.4,53.7,29.21,ENE,71,0.0,0.0,73,0.00,,,0.00,VWS V13.01,2013-08-15 04:26:00,
2013-08-14 23:31:00,62.1,53.3,29.21,ENE,71,0.0,0.0,73,0.00,,,0.00,VWS V13.01,2013-08-15 04:31:00,
2013-08-14 23:36:00,61.9,53.1,29.21,ENE,71,0.0,0.0,73,0.00,,,0.00,VWS V13.01,2013-08-15 04:36:00,
2013-08-14 23:37:00,61.9,53.1,29.21,ENE,71,0.0,0.0,73,0.00,,,0.00,VWS V13.01,2013-08-15 04:37:00,
2013-08-14 23:41:00,61.7,53.0,29.18,ENE,71,0.0,0.0,73,0.00,,,0.00,VWS V13.01,2013-08-15 04:41:00,
2013-08-14 23:42:00,61.7,53.0,29.18,ENE,71,0.0,0.0,73,0.00,,,0.00,VWS V13.01,2013-08-15 04:42:00,
2013-08-14 23:46:00,61.5,52.8,29.18,ENE,71,0.0,0.0,73,0.00,,,0.00,VWS V13.01,2013-08-15 04:46:00,
2013-08-14 23:47:00,61.3,52.6,29.18,ENE,71,0.0,0.0,73,0.00,,,0.00,VWS V13.01,2013-08-15 04:47:00,
2013-08-14 23:51:00,61.3,52.6,29.18,ENE,71,0.0,0.0,73,0.00,,,0.00,VWS V13.01,2013-08-15 04:51:00,
2013-08-14 23:52:00,61.2,52.5,29.18,ENE,71,0.0,0.0,73,0.00,,,0.00,VWS V13.01,2013-08-15 04:52:00,
2013-08-14 23:56:00,61.3,58.7,29.18,ENE,71,0.0,0.0,91,0.00,,,0.00,VWS V13.01,2013-08-15 04:56:00,
2013-08-14 23:57:00,61.3,58.7,29.18,ENE,71,0.0,0.0,91,0.00,,,0.00,VWS V13.01,2013-08-15 04:57:00,